Date,TemperatureHighF,TemperatureAvgF,TemperatureLowF,DewpointHighF,DewpointAvgF,DewpointLowF,HumidityHigh,HumidityAvg,HumidityLow,PressureMaxIn,PressureMinIn,WindSpeedMaxMPH,WindSpeedAvgMPH,GustSpeedMaxMPH,PrecipitationSumIn
2013-6-12,90,80,64,68,61,-100,83,57,33,0.00,40.00,22,13,0,0.00
2013-6-13,79,67,57,62,55,49,90,68,38,0.00,40.00,12,6,0,0.00
2013-6-14,92,77,64,73,66,57,86,70,50,0.00,40.00,17,10,0,0.00
2013-6-15,83,74,67,70,66,59,100,77,55,0.00,40.00,15,6,0,0.00
2013-6-16,83,74,66,71,67,63,100,81,51,0.00,40.00,10,5,0,0.00
2013-6-17,87,77,66,68,56,-100,100,62,29,0.00,40.00,10,5,0,0.00
2013-6-18,80,72,65,64,59,55,84,64,51,0.00,40.00,12,5,0,0.00
2013-6-19,86,74,62,66,62,57,100,68,40,0.00,40.00,15,7,0,0.00
2013-6-20,89,76,68,71,66,62,89,73,53,0.00,40.00,20,11,0,0.00
2013-6-22,90,84,74,70,66,63,69,56,41,0.00,40.00,21,14,0,0.00
2013-6-23,85,74,63,74,68,62,100,82,58,0.00,40.00,23,10,0,0.00
2013-6-24,85,76,69,74,70,66,100,82,63,0.00,40.00,22,8,0,0.00
2013-6-25,90,80,70,76,67,-100,97,70,55,0.00,40.00,19,11,0,0.00
2013-6-26,93,81,70,76,66,-100,100,68,31,0.00,40.00,14,5,0,0.00
2013-6-27,79,74,67,72,67,64,100,81,63,0.00,40.00,22,6,0,0.00
2013-6-28,83,75,68,71,62,55,100,67,38,0.00,40.00,16,9,0,0.00
2013-6-29,80,72,63,59,56,51,82,59,40,0.00,40.00,23,12,0,0.00
2013-6-30,76,67,58,59,55,50,97,69,41,0.00,40.00,11,6,0,0.00
2013-7-1,79,69,56,56,52,45,82,57,33,0.00,40.00,11,6,0,0.00
2013-7-2,82,71,61,62,53,-100,80,58,36,0.00,40.00,7,3,0,0.00
2013-7-3,85,72,60,61,54,-100,88,58,32,0.00,40.00,5,2,0,0.00
2013-7-4,86,72,58,58,54,50,86,57,31,0.00,40.00,11,7,0,0.00
2013-7-5,90,76,62,66,60,55,85,59,32,0.00,40.00,18,8,0,0.00
2013-7-6,86,76,70,66,61,56,68,61,49,0.00,40.00,17,10,0,0.00
2013-7-7,94,82,71,71,64,60,78,58,37,0.00,40.00,15,7,0,0.00
2013-7-8,94,80,75,73,68,64,76,66,46,0.00,40.00,11,4,0,0.00
2013-7-9,97,85,73,75,70,65,86,62,43,0.00,40.00,15,5,0,0.00
2013-7-10,86,77,71,72,64,-100,100,68,49,0.00,40.00,10,6,0,0.00
2013-7-11,88,75,64,65,61,58,92,65,38,0.00,40.00,12,7,0,0.00
2013-7-12,93,80,69,71,65,57,71,60,46,0.00,40.00,13,8,0,0.00
2013-7-13,92,82,76,74,69,66,78,66,46,0.00,40.00,13,9,0,0.00
2013-7-14,87,78,69,68,61,53,82,60,32,0.00,40.00,13,8,0,0.00
2013-7-15,87,75,63,67,63,60,89,67,44,0.00,40.00,13,5,0,0.00
2013-7-16,89,78,66,68,64,61,98,67,41,0.00,40.00,9,3,0,0.00
2013-7-17,92,80,67,69,67,64,100,66,42,0.00,40.00,9,4,0,0.00
2013-7-18,93,81,69,70,67,64,92,64,41,0.00,40.00,13,5,0,0.00
2013-7-19,92,81,70,72,67,64,84,63,47,0.00,40.00,9,4,0,0.00
2013-7-20,83,74,69,68,64,-100,95,72,55,0.00,40.00,9,5,0,0.00
2013-7-21,90,77,67,71,68,65,100,76,48,0.00,40.00,8,3,0,0.00
2013-7-22,95,80,67,76,66,-100,100,75,29,0.00,40.00,10,3,0,0.00
2013-7-23,78,72,65,67,64,60,96,77,64,0.00,40.00,26,6,0,0.00
2013-7-24,85,72,60,65,62,60,100,74,46,0.00,40.00,8,4,0,0.00
2013-7-25,77,70,65,70,66,62,100,85,67,0.00,40.00,13,4,0,0.00
2013-7-26,77,70,58,69,59,48,100,73,36,0.00,40.00,15,7,0,0.00
2013-7-27,74,64,55,53,46,-100,90,60,32,0.00,40.00,10,5,0,0.00
2013-7-28,78,66,50,56,50,47,89,59,35,0.00,40.00,6,3,0,0.00
2013-7-29,66,63,59,66,61,55,100,95,71,0.00,40.00,12,6,0,0.00
2013-7-30,76,69,64,69,67,64,100,91,73,0.00,40.00,7,4,0,0.00
2013-7-31,85,73,64,70,67,64,100,81,55,0.00,40.00,6,2,0,0.00
2013-8-1,87,75,65,70,66,60,100,76,42,0.00,40.00,20,6,0,0.00
2013-8-2,80,72,64,70,67,64,100,84,65,0.00,40.00,14,7,0,0.00
2013-8-3,78,70,62,69,62,59,97,78,60,0.00,40.00,12,7,0,0.00
2013-8-4,76,68,62,70,64,57,100,86,70,0.00,40.00,13,7,0,0.00
2013-8-5,84,75,69,77,72,69,100,90,71,0.00,40.00,11,4,0,0.00
2013-8-6,89,78,68,77,73,68,100,86,62,0.00,40.00,9,4,0,0.00
2013-8-7,82,75,69,74,67,60,100,78,50,0.00,40.00,14,5,0,0.00
2013-8-8,75,69,64,68,65,63,100,88,69,0.00,40.00,7,4,0,0.00
2013-8-9,79,72,66,68,66,62,100,83,62,0.00,40.00,8,4,0,0.00
2013-8-10,82,71,61,67,62,56,89,74,55,0.00,40.00,7,4,0,0.00
2013-8-11,85,73,61,70,66,61,100,79,56,0.00,40.00,7,4,0,0.00
2013-8-21,89,77,68,73,69,67,99,77,54,0.00,40.00,3,2,0,0.00
2013-8-22,85,76,68,73,69,65,100,81,59,0.00,40.00,3,1,0,0.00
2013-8-23,88,78,69,72,70,68,100,79,52,0.00,40.00,3,2,0,0.00
2013-8-24,90,79,72,73,67,-100,94,71,52,0.00,40.00,4,2,0,0.00
2013-8-25,92,80,71,74,71,69,98,74,51,0.00,40.00,3,2,0,0.00
2013-8-26,93,82,71,72,70,68,96,70,48,0.00,40.00,3,2,0,0.00
2013-8-27,91,79,70,71,68,67,91,71,49,0.00,40.00,3,2,0,0.00
2013-10-8,76,61,46,45,42,40,79,53,31,0.00,40.00,5,3,0,0.00
2013-10-9,79,64,52,52,48,45,77,58,36,0.00,40.00,4,2,0,0.00
2013-10-10,80,67,56,57,54,52,88,66,44,0.00,40.00,4,3,0,0.00
2013-10-11,74,64,54,58,52,41,84,66,31,0.00,40.00,4,3,0,0.00
2013-10-12,65,53,42,40,20,-100,84,50,25,0.00,40.00,3,2,0,0.00
2013-10-13,68,56,45,36,32,29,57,43,28,0.00,40.00,4,2,0,0.00
2013-10-14,59,54,46,59,46,32,100,78,43,0.00,40.00,5,3,0,0.00
2013-11-2,57,42,32,34,28,-100,90,63,31,0.00,40.00,3,2,0,0.00
2013-11-3,56,48,39,37,32,28,71,56,42,0.00,40.00,6,4,0,0.00
2013-11-4,55,49,41,43,37,34,82,64,46,0.00,40.00,4,2,0,0.00
2013-11-5,47,42,33,47,40,32,100,92,73,0.00,40.00,5,3,0,0.00
2013-11-6,43,35,30,33,31,29,100,86,63,0.00,40.00,5,2,0,0.00
2013-11-7,49,38,29,30,15,-100,100,64,28,0.00,40.00,5,2,0,0.00
2013-11-8,63,48,34,36,31,24,71,54,31,0.00,40.00,6,2,0,0.00
2013-11-10,53,43,32,37,31,25,83,63,38,0.00,40.00,3,2,0,0.00
2013-11-11,44,33,19,44,26,9,100,75,51,0.00,40.00,6,3,0,0.00
2013-11-12,33,20,9,10,-2,-100,85,60,28,0.00,40.00,3,1,0,0.00
2013-11-13,52,36,20,27,19,10,67,52,35,0.00,40.00,4,2,0,0.00
2013-11-14,54,41,33,32,25,19,74,54,38,0.00,40.00,3,1,0,0.00
2013-11-15,56,42,26,43,33,25,95,72,45,0.00,40.00,4,2,0,0.00
2013-11-16,58,52,46,52,48,44,98,87,69,0.00,40.00,5,3,0,0.00
2013-11-18,58,46,34,30,24,21,73,43,27,0.00,40.00,2,1,0,0.00
2013-11-19,61,48,32,32,22,-100,69,43,26,0.00,40.00,6,4,0,0.00
2013-11-24,29,19,9,8,-5,-100,79,57,35,0.00,40.00,4,2,0,0.00
2013-11-25,42,31,22,26,19,8,75,62,46,0.00,40.00,4,2,0,0.00
2013-11-26,32,24,14,22,1,-100,83,62,33,0.00,40.00,6,3,0,0.00
2013-11-27,33,21,8,15,9,4,81,60,39,0.00,40.00,4,2,0,0.00
2013-11-28,32,25,21,19,16,12,83,67,47,0.00,40.00,4,2,0,0.00
2013-11-29,49,32,17,25,19,12,83,63,37,0.00,40.00,4,2,0,0.00
2013-11-30,59,39,24,30,22,-100,85,57,29,0.00,40.00,2,1,0,0.00
2013-12-1,50,36,25,30,26,22,86,68,45,0.00,40.00,2,1,0,0.00
2013-12-2,66,44,31,32,30,26,87,62,28,0.00,40.00,4,1,0,0.00
2013-12-3,43,38,33,32,31,30,97,77,62,0.00,40.00,4,2,0,0.00
2013-12-4,33,20,14,33,16,4,100,84,64,0.00,40.00,30,6,0,0.00
2013-12-5,14,10,5,4,-3,-9,67,55,45,0.00,40.00,6,3,0,0.00
2013-12-12,32,18,7,20,10,-2,82,70,60,0.00,40.00,2,1,0,0.00
2013-12-13,30,23,17,24,19,14,92,84,73,0.00,40.00,5,2,0,0.00
2013-12-14,22,17,12,18,10,-100,93,82,71,0.00,40.00,5,2,0,0.00
2013-12-15,42,29,15,31,23,13,95,81,58,0.00,40.00,3,1,0,0.00
2013-12-16,49,34,21,33,26,20,95,75,50,0.00,40.00,3,1,0,0.00
2013-12-17,41,32,24,26,14,-100,93,67,33,0.00,40.00,4,2,0,0.00
2013-12-18,56,41,29,27,24,19,66,52,33,0.00,40.00,3,2,0,0.00